[[{"header":{"parameterUnit":"m.s-1","parameterCategory":1,"la1":30.2991,"la2":30.254,"lo1":-89.0895,"lo2":-89.0444,"dx":0.0017,"dy":0.0017,"nx":28,"ny":28,"refTime":"2022-11-28T15:00:00:Z","depth":0,"parameterNumber":2,"parameterNumberName":"U-component_of_WINDS"},"data":[0,0,0,0,0,0,0,0,0,0,0,0,0,0,0,0,0,0,0,0,0,0,0,0,0,0,0,0,0,0,0,0,0,0,0,0,0,0,0,0,0,0,0,0,0,0,0,0,0,0,0,0,0,0,0,0,0,0,-4.1499,-4.15,0,-4.1553,-4.1554,-4.1554,-4.1498,-4.1496,-4.1494,-4.1492,-4.1546,-4.1549,-4.1553,0,0,0,0,0,0,0,0,0,0,0,0,0,-4.1348,-4.1351,-4.1499,-4.15,-4.15,-4.1553,-4.1554,-4.1554,-4.1499,-4.1496,-4.1494,-4.1491,-4.1545,-4.1549,-4.1553,0,0,0,0,0,0,0,0,0,0,0,0,0,-4.1409,-4.1352,-4.1499,-4.1479,-4.1478,-4.1553,-4.1554,-4.1555,-4.1499,-4.1496,-4.1493,-4.149,-4.1543,-4.1548,-4.1554,-4.165,0,0,-4.1569,-4.1572,0,0,0,0,0,0,0,0,-4.1405,-4.1414,-4.1481,-4.1481,-4.1479,-4.1516,-4.152,-4.1587,-4.15,-4.1491,-4.1492,-4.1488,-4.1538,-4.1544,-4.1561,-4.1653,-4.1655,-4.157,-4.1573,-4.1575,-4.1577,0,0,0,0,0,0,0,-4.1401,-4.1412,-4.152,-4.1482,-4.1481,-4.1467,-4.1472,-4.1532,-4.1532,-4.1492,-4.1488,-4.1495,-4.1537,-4.1556,-4.1562,-4.1656,-4.157,-4.1574,-4.1577,-4.158,-4.1831,-4.1834,0,0,0,0,0,0,-4.1399,-4.1408,-4.1519,-4.1522,-4.1434,-4.1473,-4.1478,-4.1507,-4.1531,-4.1532,-4.1498,-4.1492,-4.1549,-4.1556,-4.1564,-4.1678,-4.1575,-4.158,-4.1583,-4.1827,-4.1831,-4.1835,0,0,0,0,0,0,-4.1396,-4.141,-4.1516,-4.1464,-4.1477,-4.1479,-4.1512,-4.151,-4.1529,-4.1536,-4.1536,-4.1517,-4.1547,-4.1556,-4.1629,-4.1679,-4.1582,-4.1587,-4.1823,-4.1828,-4.1833,-4.1907,0,0,0,0,0,0,-4.1392,-4.1409,-4.1445,-4.1466,-4.148,-4.1581,-4.1515,-4.1513,-4.1538,-4.1531,-4.1554,-4.1555,-4.1545,-4.1622,-4.1635,-4.1684,-4.1591,-4.1818,-4.1825,-4.1832,-4.19,-4.1915,-4.1927,0,0,0,0,0,-4.1387,-4.1464,-4.1447,-4.1461,-4.1526,-4.1584,-4.1592,-4.158,-4.1542,-4.1579,-4.1584,-4.1554,-4.1672,-4.163,-4.1644,-4.1696,-4.1815,-4.1823,-4.1831,-4.1895,-4.1912,-4.1926,0,0,0,0,0,0,-4.1448,-4.1466,-4.1448,-4.1534,-4.1558,-4.1575,-4.162,-4.1599,-4.1634,-4.1626,-4.1609,-4.1614,-4.1692,-4.1702,-4.1654,-4.1791,-4.1737,-4.1749,-4.1781,-4.1798,-4.181,-4.1805,-4.1595,0,0,0,0,0,-4.1472,-4.1518,-4.1531,-4.1606,-4.1619,-4.1618,-4.1643,-4.1632,-4.1656,-4.1666,-4.1676,-4.1701,-4.1743,-4.1771,-4.1811,-4.1903,-4.1907,-4.1946,-4.1959,-4.197,-4.1978,-4.2027,-4.2044,-4.1862,-4.1862,-4.1861,0,0,-4.152,-4.1536,-4.1566,-4.1619,-4.1636,-4.1684,-4.1627,-4.168,-4.1716,-4.1674,-4.1743,-4.1752,-4.1778,-4.1861,-4.1898,-4.1872,-4.2031,-4.198,-4.1988,-4.1991,-4.2037,-4.2055,-4.207,-4.1867,-4.1866,-4.1865,0,0,-4.1633,-4.1651,-4.1714,-4.1734,-4.1761,-4.1761,-4.1777,-4.1797,-4.1802,-4.1872,-4.1841,-4.1884,-4.1958,-4.1978,-4.1997,-4.2122,-4.2095,-4.2136,-4.2203,-4.2251,-4.2265,-4.2277,-4.232,-4.2336,-4.2145,-4.2145,-4.2145,0,-4.169,-4.1761,-4.1749,-4.1805,-4.1829,-4.1796,-4.186,-4.1879,-4.1918,-4.1935,-4.1906,-4.1999,-4.2014,-4.2101,-4.2131,-4.2149,-4.2166,-4.2131,-4.2264,-4.2277,-4.2288,-4.2329,-4.2345,-4.215,-4.2149,-4.2149,-4.2148,0,-4.1829,-4.188,-4.1928,-4.1968,-4.1997,-4.2057,-4.2054,-4.2086,-4.2073,-4.2076,-4.2148,-4.2166,-4.2208,-4.2229,-4.2217,-4.2315,-4.2297,-4.2267,-4.2212,-4.231,-4.2348,-4.2363,-4.2156,-4.2155,-4.2153,-4.2152,0,0,-4.1978,-4.2013,-4.203,-4.2048,-4.2078,-4.2116,-4.2176,-4.2218,-4.2245,-4.2275,-4.2323,-4.2388,-4.236,-4.2383,-4.2373,-4.2416,-4.2512,-4.2379,-4.238,-4.2401,-4.2619,-4.264,-4.2658,-4.2496,-4.2499,-4.2501,-4.2616,0,-4.209,-4.2192,-4.2185,-4.2281,-4.2327,-4.2298,-4.2349,-4.2373,-4.2378,-4.2418,-4.2424,-4.2469,-4.243,-4.2443,-4.2485,-4.2491,-4.2554,-4.2483,-4.2539,-4.2541,-4.253,-4.2678,-4.27,-4.2808,-4.2631,-4.2634,-4.2636,0,-4.2233,-4.2269,-4.237,-4.2394,-4.2413,-4.2459,-4.2498,-4.2537,-4.2564,-4.2565,-4.2592,-4.2576,-4.2636,-4.2583,-4.2664,-4.2616,-4.2639,-4.2646,-4.265,-4.2652,-4.2592,-4.2682,-4.2842,-4.2857,-4.2659,-4.2657,-4.2655,0,-4.2329,-4.2403,-4.2472,-4.2489,-4.2519,-4.2552,-4.2566,-4.2591,-4.2617,-4.2652,-4.2669,-4.271,-4.2732,-4.2765,-4.276,-4.2722,-4.2843,-4.2789,-4.2844,-4.2844,-4.2867,-4.2865,-4.3031,-4.2888,-4.2887,-4.2887,-4.2887,0,-4.2453,-4.2516,-4.2516,-4.2558,-4.2628,-4.262,-4.2689,-4.2699,-4.2721,-4.2765,-4.2744,-4.2785,-4.2778,-4.282,-4.2818,-4.2885,-4.2896,-4.2897,-4.2895,-4.2897,-4.2897,-4.2909,-4.2901,-4.2891,-4.289,-4.2889,-4.2889,0,-4.257,-4.2573,-4.2647,-4.2671,-4.2678,-4.2728,-4.2748,-4.2789,-4.2794,-4.285,-4.2862,-4.2869,-4.2918,-4.2918,-4.2973,-4.2971,-4.3053,-4.3044,-4.3044,-4.3041,-4.3094,-4.3088,-4.3271,-4.3294,-4.3139,-4.314,-4.3141,0,-4.2647,-4.2695,-4.2725,-4.2753,-4.2769,-4.2815,-4.2843,-4.2838,-4.2867,-4.2903,-4.2939,-4.2986,-4.3023,-4.3102,-4.3111,-4.3154,-4.3144,-4.3205,-4.315,-4.3151,-4.3142,-4.3138,-4.3142,-4.3215,-4.3217,-4.3218,-4.3219,0,-4.2784,-4.2784,-4.2824,-4.2866,-4.29,-4.2933,-4.2963,-4.2987,-4.2986,-4.302,-4.307,-4.3099,-4.3156,-4.3202,-4.3244,-4.3258,-4.3238,-4.3237,-4.3252,-4.3253,-4.3249,-4.325,-4.307,-4.3232,-4.3231,-4.323,-4.3229,-4.3229,-4.2881,-4.2922,-4.295,-4.2996,-4.3019,-4.3048,-4.3087,-4.3098,-4.314,-4.3186,-4.3181,-4.3236,-4.3264,-4.3317,-4.3336,-4.3379,-4.3357,-4.3378,-4.3383,-4.3388,-4.3392,-4.3246,-4.3387,-4.3386,-4.3386,-4.3386,-4.3385,0,-4.3015,-4.3032,-4.3075,-4.3118,-4.3155,-4.3136,-4.3169,-4.32,-4.3249,-4.3277,-4.3314,-4.3372,-4.3418,-4.3433,-4.3477,-4.3508,-4.35,-4.352,-4.3516,-4.3519,-4.341,-4.3392,-4.3526,-4.3525,-4.3525,-4.3525,-4.3525,-4.3525,-4.3088,-4.3156,-4.3159,-4.3239,-4.3255,-4.3309,-4.333,-4.3357,-4.3379,-4.3444,-4.3482,-4.3493,-4.3515,-4.3561,-4.3602,-4.3606,-4.3622,-4.3644,-4.3644,-4.3541,-4.3527,-4.3513,-4.3496,-4.3649,-4.3649,-4.3748,-4.3749,-4.375]},{"header":{"parameterUnit":"m.s-1","parameterCategory":1,"la1":30.2991,"la2":30.254,"lo1":-89.0895,"lo2":-89.0444,"dx":0.0017,"dy":0.0017,"nx":28,"ny":28,"refTime":"2022-11-28T15:00:00:Z","depth":0,"parameterNumber":3,"parameterNumberName":"V-component_of_WINDS"},"data":[0,0,0,0,0,0,0,0,0,0,0,0,0,0,0,0,0,0,0,0,0,0,0,0,0,0,0,0,0,0,0,0,0,0,0,0,0,0,0,0,0,0,0,0,0,0,0,0,0,0,0,0,0,0,0,0,0,0,1.4998,1.4999,0,1.5085,1.5086,1.5087,1.5114,1.5113,1.5113,1.5112,1.5199,1.5202,1.5204,0,0,0,0,0,0,0,0,0,0,0,0,0,1.4855,1.4858,1.4998,1.4999,1.5,1.5085,1.5086,1.5088,1.5114,1.5113,1.5113,1.5112,1.5198,1.5201,1.5205,0,0,0,0,0,0,0,0,0,0,0,0,0,1.4927,1.4859,1.4998,1.5024,1.5027,1.5085,1.5087,1.5088,1.5114,1.5113,1.5113,1.5112,1.5197,1.5201,1.5205,1.5243,0,0,1.5218,1.5219,0,0,0,0,0,0,0,0,1.4923,1.4933,1.5019,1.5022,1.5026,1.5088,1.5068,1.514,1.5114,1.5081,1.5112,1.5112,1.5163,1.5169,1.5187,1.5247,1.5251,1.5218,1.522,1.5222,1.5223,0,0,0,0,0,0,0,1.4918,1.4929,1.5033,1.502,1.5024,1.5031,1.5041,1.5082,1.5124,1.5084,1.5086,1.5096,1.5164,1.5183,1.5189,1.5252,1.5218,1.5221,1.5224,1.5226,1.5352,1.5353,0,0,0,0,0,0,1.4909,1.4925,1.503,1.5035,1.4972,1.5034,1.5045,1.5069,1.5124,1.5132,1.5096,1.5097,1.5176,1.5185,1.5192,1.5243,1.5222,1.5226,1.5228,1.5351,1.5352,1.5353,0,0,0,0,0,0,1.4906,1.4918,1.5026,1.4981,1.4995,1.5038,1.5064,1.5071,1.509,1.5133,1.5141,1.5108,1.5176,1.5187,1.5232,1.5246,1.5228,1.5231,1.535,1.5352,1.5353,1.5343,0,0,0,0,0,0,1.4902,1.4917,1.4931,1.4981,1.4997,1.5064,1.5065,1.5073,1.5097,1.5098,1.5146,1.5153,1.5177,1.5225,1.5236,1.5252,1.5235,1.5349,1.5351,1.5353,1.5342,1.5344,1.5345,0,0,0,0,0,1.4896,1.4923,1.4932,1.4944,1.5016,1.5064,1.5074,1.5101,1.5098,1.5113,1.5142,1.5152,1.5243,1.523,1.5241,1.5259,1.5348,1.535,1.5352,1.5341,1.5343,1.5345,0,0,0,0,0,0,1.4872,1.493,1.494,1.4984,1.5019,1.5069,1.5088,1.5101,1.5137,1.5137,1.5168,1.5179,1.5222,1.5245,1.5229,1.5301,1.5296,1.5301,1.5284,1.5286,1.5288,1.5281,1.5238,0,0,0,0,0,1.4873,1.4907,1.4956,1.499,1.5007,1.5045,1.5067,1.5085,1.5122,1.5137,1.5169,1.5205,1.5242,1.5265,1.5302,1.5346,1.5358,1.5364,1.5366,1.5367,1.537,1.5399,1.5402,1.536,1.536,1.536,0,0,1.4872,1.4908,1.4928,1.4986,1.5015,1.5051,1.5057,1.5093,1.512,1.5142,1.5187,1.5212,1.5254,1.53,1.5322,1.532,1.5385,1.537,1.537,1.5373,1.5401,1.5405,1.5409,1.5362,1.5361,1.5361,0,0,1.489,1.4921,1.4954,1.4984,1.503,1.5056,1.5064,1.5112,1.513,1.5177,1.5195,1.5228,1.529,1.532,1.5344,1.5379,1.539,1.539,1.5398,1.5425,1.5428,1.5431,1.5445,1.545,1.5393,1.5393,1.5393,0,1.4884,1.4939,1.4969,1.5006,1.5032,1.5056,1.5091,1.5119,1.5173,1.5191,1.5189,1.5271,1.5301,1.5355,1.5365,1.5382,1.5394,1.5384,1.5425,1.5429,1.5432,1.5446,1.5451,1.5393,1.5393,1.5393,1.5393,0,1.493,1.4968,1.4989,1.5044,1.5072,1.5108,1.5144,1.517,1.5187,1.5213,1.5261,1.5299,1.5345,1.5359,1.5374,1.5417,1.5415,1.5419,1.5415,1.5435,1.5449,1.5454,1.5393,1.5393,1.5393,1.5393,0,0,1.4932,1.5006,1.5014,1.504,1.5094,1.5124,1.5162,1.5209,1.5231,1.5269,1.5302,1.5357,1.5363,1.5389,1.5409,1.5433,1.5461,1.5435,1.5436,1.5439,1.5513,1.551,1.5515,1.547,1.5471,1.5472,1.551,0,1.4958,1.5027,1.5057,1.5113,1.5149,1.5175,1.5209,1.5246,1.5273,1.5308,1.5337,1.5376,1.5379,1.5396,1.5421,1.5452,1.5477,1.545,1.5502,1.5503,1.549,1.5522,1.5518,1.5552,1.5515,1.5516,1.5517,0,1.4996,1.5037,1.5096,1.515,1.5166,1.5196,1.5243,1.5276,1.532,1.5338,1.5371,1.5391,1.5433,1.5427,1.5487,1.5468,1.5492,1.5511,1.5513,1.5518,1.5511,1.5529,1.5563,1.5568,1.5525,1.5524,1.5524,0,1.4993,1.5063,1.5109,1.513,1.5193,1.5214,1.5241,1.5285,1.5312,1.5354,1.5372,1.5417,1.5442,1.5477,1.5509,1.5502,1.5567,1.5563,1.5583,1.5583,1.5595,1.5593,1.5633,1.5609,1.5609,1.5609,1.5609,0,1.5019,1.5054,1.5109,1.5137,1.5179,1.5214,1.5255,1.5284,1.5324,1.5358,1.5383,1.5415,1.5456,1.5494,1.5519,1.5566,1.5576,1.5593,1.5599,1.5591,1.5589,1.5606,1.5604,1.5611,1.561,1.561,1.561,0,1.5022,1.5059,1.5111,1.5168,1.5184,1.5212,1.5261,1.529,1.532,1.5364,1.5376,1.5422,1.5468,1.5505,1.5564,1.5581,1.5631,1.5638,1.5616,1.562,1.5639,1.5637,1.5691,1.5701,1.5669,1.567,1.567,0,1.5035,1.5064,1.5125,1.5151,1.5179,1.522,1.5249,1.5287,1.5316,1.5371,1.5394,1.5442,1.5483,1.5556,1.5594,1.5641,1.5649,1.5666,1.5656,1.5648,1.5651,1.5649,1.5653,1.5666,1.5666,1.5666,1.5666,0,1.5056,1.5074,1.5115,1.5165,1.52,1.524,1.528,1.53,1.5345,1.5377,1.5426,1.5458,1.5521,1.5569,1.5621,1.5649,1.5666,1.567,1.5677,1.5668,1.5655,1.5664,1.562,1.5668,1.5667,1.5667,1.5667,1.5667,1.5065,1.5093,1.5142,1.5188,1.5224,1.5262,1.5293,1.5328,1.537,1.5425,1.5445,1.5495,1.5542,1.5613,1.5643,1.5684,1.5684,1.5694,1.5697,1.5699,1.5699,1.5649,1.5693,1.5693,1.5693,1.5693,1.5693,0,1.5088,1.5122,1.5164,1.5222,1.5259,1.5274,1.5321,1.5351,1.5395,1.5438,1.5479,1.5537,1.5585,1.5629,1.568,1.5704,1.5713,1.5716,1.5715,1.5722,1.5695,1.5684,1.5708,1.5708,1.5708,1.5708,1.5708,1.5708,1.5104,1.5153,1.5178,1.5246,1.528,1.5331,1.5357,1.5393,1.5428,1.5492,1.5533,1.5562,1.5606,1.5661,1.5707,1.5719,1.5736,1.5737,1.5751,1.5725,1.5723,1.5721,1.5711,1.5741,1.5741,1.5775,1.5775,1.5775]}]]